Das Wetter in  D-61279 Heinzenberg / Taunus





Wetter Minimum- & Maximum-Werte im Dezember 2014

Standort: Heinzenberg / Taunus - Höhe 297 m         8 24' 1" Ost 50 21' 51" Nord
(   3-stündige Aktualisierung    letzte Aktualisierung um 19:04 am 31.12.2014  )


Messgrösse

Minimum

Maximum

Durchschnitt

Temperatur West /
Luftfeuchte West
Anklicken für Monats-Diagramm

-8,0 C

18:53
28.12.2014

67 %

15:08
28.12.2014

12,2 C

19:58
18.12.2014

94 %

11:55
14.12.2014

Temp

2,8 C

Feuchte

87 %

Temperatur Ost /
Luftfeuchte Ost
Anklicken für Monats-Diagramm

-7,8 C

18:48
28.12.2014

--

--
--

12,4 C

20:28
18.12.2014

--

--
--

2,8 C

--

Luftdruck Anklicken für Monats-Diagramm

997,5 hPa

13:17
27.12.2014

1037,6 hPa

23:27
31.12.2014

1019,5 hPa

Taupunkt

-11,3 C

18:53
28.12.2014

10,2 C

19:18
18.12.2014

0,8 C

Windchill
( gefühlte Temperatur )

-18,6 C

07:23
28.12.2014

8,6 C

05:03
18.12.2014

-1,6 C

Windgeschwindigkeit /
Windrichtung
Anklicken für Monats-Diagramm

---

55,5 km/h / W-SW

12:38
12.12.2014

12,6 km/h
W

Helligkeit /
Sonnenschein
Anklicken für Monats-Diagramm
Anklicken für Monats-Diagramm

Sonnenschein:

16:45 Stunden

Max: 6:25 Std am
28.12.2014

34,8 klux

12:39
29.12.2014

4,7 klux

Solarstrahlung Anklicken für Monats-Diagramm

---

238 W/m

12:39
29.12.2014

36 W/m

Regenmenge
    Dezember 2014
Anklicken für Monats-Diagramm

Insgesamt 64,4 l/m

in 100:19 Stunden
an 24 Tagen

17,5 l/m

02:44
13.12.2014

Gesamtmenge

64,4 l/m

Regen-Tage
    Dezember 2014
Anklicken für Monats-Diagramm

>   0 mm/Tag

>   2 mm/Tag

>   5 mm/Tag

> 10 mm/Tag

> 20 mm/Tag

24 Tage     
9 Tage     
4 Tage     
2 Tage     
0 Tage     

Eisige Tage Dezember 2014 / 2013

Tmin ≤ -10C     

0 Tage

/

0 Tage

Eistage Dezember 2014 / 2013

Tmax <     0C     

2 Tage

/

0 Tage

Frosttage Dezember 2014 / 2013

Tmin ≤     0C     

14 Tage

/

11 Tage

Kalte Tage Dezember 2014 / 2013

Tmax <   10C     

29 Tage

/

27 Tage

Warme Tage Dezember 2014 / 2013

Tmax ≥   20C     

0 Tage

/

0 Tage

Sommertage Dezember 2014 / 2013

Tmax ≥   25C     

0 Tage

/

0 Tage

Heisse Tage Dezember 2014 / 2013

Tmax ≥   30C     

0 Tage

/

0 Tage


Monatsdiagramm Dezember 2014

Die Kurven zeigen den Durchschnittswert des jeweiligen Tages an


Wetter-Monatsübersicht Dezember 2014
Datum
  Temperatur
   Luftdruck
   Wind
  Regen
   Luftfeuchte
   Helligkeit

Sonnen-
schein


Temp.

Min.
Temp.

Max.
Temp.


Luftdruck

Min.
Luftdruck

Max.
Luftdruck

-Geschw.
Haupt-Richtg.

Max.
Wind

Menge /
Dauer


Feuchte

Min.
Feuchte

Max.
Feuchte


Helligkeit

Max.
Helligkeit

1.
Dezember
1,2 C-0,6 C
23:18
2,6 C
04:47
1011,0 hPa1009,5 hPa
04:57
1012,0 hPa
23:18
8,3 km/h
NO
21,9 km/h
14:02  
---
88 %85 %
15:42
90 %
00:02
1,83 klux3,80 klux
12:57
--- 
2.
Dezember
-0,7 C-1,2 C
07:33
-0,3 C
14:03
1013,7 hPa1012,0 hPa
00:03
1017,2 hPa
23:29
2,4 km/h
NO
15,0 km/h
11:58  
---
86 %84 %
13:58
89 %
00:23
1,84 klux4,76 klux
11:48
--- 
3.
Dezember
-0,3 C-1,0 C
07:14
0,9 C
14:19
1019,4 hPa1017,2 hPa
00:19
1020,3 hPa
09:19
3,4 km/h
NO
18,3 km/h
15:04  
---
84 %80 %
14:44
87 %
07:04
5,01 klux11,90 klux
13:44
--- 
4.
Dezember
0,2 C-0,7 C
03:40
0,9 C
15:10
1017,3 hPa1016,0 hPa
15:10
1020,3 hPa
00:00
0,2 km/h
NW
5,8 km/h
02:00  
---
1:00 Stunden
89 %84 %
00:00
92 %
13:55
1,7 klux3,8 klux
14:00
--- 
5.
Dezember
1,9 C0,8 C
00:01
2,9 C
15:06
1019,1 hPa1017,0 hPa
00:31
1021,0 hPa
22:31
0,6 km/h
NW
9,8 km/h
11:26  
---
10 Minuten
92 %90 %
16:26
93 %
07:21
2,45 klux5,87 klux
13:36
--- 
6.
Dezember
2,2 C-0,5 C
22:53
3,9 C
14:16
1023,4 hPa1020,9 hPa
00:01
1026,4 hPa
21:56
0,5 km/h
NW
7,2 km/h
14:41  
---
10 Minuten
91 %90 %
15:31
92 %
06:51
2,27 klux6,93 klux
13:41
--- 
7.
Dezember
2,1 C-0,6 C
00:18
5,9 C
14:33
1022,1 hPa1018,7 hPa
18:33
1026,5 hPa
00:23
7,3 km/h
W-SW
25,3 km/h
12:13  
3,2 l/m
4:46 Stunden
87 %72 %
14:38
93 %
10:23
12,89 klux33,20 klux
13:03
3:40 Std 
8.
Dezember
1,5 C-2,2 C
23:05
4,6 C
13:44
1019,7 hPa1018,6 hPa
13:44
1021,2 hPa
09:14
7,0 km/h
W-SW
24,9 km/h
02:19  
0,2 l/m
45 Minuten
87 %75 %
14:59
91 %
00:04
12,2 klux29,2 klux
13:09
3:30 Std 
9.
Dezember
0,6 C-2,1 C
01:15
3,0 C
13:50
1027,4 hPa1020,5 hPa
00:15
1030,4 hPa
16:50
2,5 km/h
W-SW
19,7 km/h
22:05  
---
88 %84 %
14:20
91 %
09:05
8,1 klux32,1 klux
12:00
1:20 Std 
10.
Dezember
2,2 C0,7 C
08:51
3,8 C
23:57
1021,0 hPa1017,7 hPa
23:57
1029,4 hPa
00:01
18,5 km/h
W-SW
36,8 km/h
11:01  
4,0 l/m
2:35 Stunden
87 %82 %
07:51
91 %
12:46
2,3 klux7,1 klux
10:31
--- 
11.
Dezember
4,2 C2,9 C
18:37
5,4 C
13:57
1012,8 hPa1010,2 hPa
13:57
1017,7 hPa
00:02
21,9 km/h
W-SW
54,9 km/h
14:17  
2,7 l/m
6:00 Stunden
87 %84 %
23:13
91 %
15:37
2,07 klux6,67 klux
13:22
--- 
12.
Dezember
7,2 C5,2 C
00:03
9,2 C
21:33
1005,0 hPa1001,5 hPa
20:48
1012,3 hPa
00:03
33,0 km/h
W-SW
55,5 km/h
12:38  
5,6 l/m
3:16 Stunden
82 %76 %
13:38
91 %
23:49
2,70 klux7,22 klux
12:43
--- 
13.
Dezember
3,5 C1,5 C
20:14
6,4 C
00:04
1011,0 hPa1004,9 hPa
00:04
1014,9 hPa
20:14
2,0 km/h
W
22,9 km/h
00:14  
17,5 l/m
20:50 Stunden
92 %90 %
00:19
93 %
20:44
1,94 klux5,63 klux
12:29
--- 
14.
Dezember
1,5 C0,3 C
06:45
3,1 C
14:15
1017,2 hPa1014,8 hPa
00:50
1019,1 hPa
19:50
0,1 km/h
W
10,2 km/h
15:50  
3,6 l/m
6:15 Stunden
92 %90 %
16:15
94 %
11:55
4,37 klux10,30 klux
13:15
--- 
15.
Dezember
2,1 C-1,6 C
06:36
4,2 C
14:01
1016,3 hPa1015,5 hPa
14:01
1018,0 hPa
00:01
1,9 km/h
W-SW
22,1 km/h
12:21  
0,3 l/m
1:25 Stunden
91 %86 %
12:01
93 %
07:31
5,1 klux29,7 klux
11:26
25 Min 
16.
Dezember
4,4 C2,7 C
23:17
6,0 C
13:01
1013,9 hPa1012,2 hPa
13:36
1015,7 hPa
23:17
8,5 km/h
W
20,7 km/h
19:51  
1,2 l/m
4:15 Stunden
91 %88 %
20:01
92 %
00:26
3,5 klux9,1 klux
13:01
--- 
17.
Dezember
4,0 C2,1 C
05:22
7,8 C
23:38
1010,4 hPa1005,2 hPa
15:07
1015,7 hPa
00:02
14,1 km/h
W-SW
29,1 km/h
12:57  
1,5 l/m
5:55 Stunden
90 %86 %
09:12
93 %
17:42
2,5 klux5,1 klux
11:32
--- 
18.
Dezember
9,9 C7,7 C
07:23
12,2 C
19:58
1013,1 hPa1011,5 hPa
14:43
1014,6 hPa
22:44
21,4 km/h
W-SW
45,6 km/h
21:23  
---
35 Minuten
89 %77 %
21:23
93 %
00:03
4,54 klux12,70 klux
11:48
--- 
19.
Dezember
9,0 C4,2 C
23:55
11,6 C
00:04
1015,3 hPa1011,7 hPa
15:19
1021,8 hPa
23:55
28,5 km/h
W
47,5 km/h
11:04  
6,1 l/m
6:15 Stunden
84 %78 %
03:09
91 %
17:09
1,7 klux4,3 klux
13:29
--- 
20.
Dezember
4,1 C2,5 C
06:55
5,5 C
18:25
1022,6 hPa1019,5 hPa
14:25
1028,0 hPa
23:56
25,8 km/h
W
48,8 km/h
19:25  
0,9 l/m
4:40 Stunden
84 %79 %
10:55
89 %
21:05
4,16 klux24,60 klux
10:25
5 Min 
21.
Dezember
4,9 C3,1 C
02:21
6,4 C
21:16
1029,1 hPa1025,6 hPa
21:37
1032,0 hPa
11:21
23,8 km/h
W
42,9 km/h
23:57  
0,6 l/m
1:15 Stunden
84 %80 %
13:01
91 %
06:41
5,4 klux18,8 klux
12:46
--- 
22.
Dezember
7,3 C5,9 C
00:37
9,0 C
21:22
1022,6 hPa1021,1 hPa
21:22
1025,7 hPa
00:37
33,6 km/h
W
45,5 km/h
17:42  
0,3 l/m
1:25 Stunden
83 %80 %
20:42
89 %
08:42
2,2 klux5,3 klux
12:27
--- 
23.
Dezember
8,9 C7,4 C
23:49
9,6 C
13:38
1021,1 hPa1020,2 hPa
18:58
1022,2 hPa
10:13
31,1 km/h
W
47,9 km/h
02:43  
---
79 %77 %
06:13
84 %
20:23
3,08 klux8,65 klux
13:33
--- 
24.
Dezember
7,0 C4,3 C
23:50
8,5 C
15:19
1018,7 hPa1017,1 hPa
15:19
1020,7 hPa
23:50
28,8 km/h
W
48,3 km/h
11:44  
1,7 l/m
4:21 Stunden
80 %75 %
10:04
89 %
22:40
1,42 klux5,29 klux
12:09
--- 
25.
Dezember
3,3 C1,2 C
23:31
4,7 C
13:40
1024,3 hPa1020,7 hPa
00:10
1028,4 hPa
23:31
19,8 km/h
W
35,1 km/h
18:35  
0,6 l/m
3:10 Stunden
84 %78 %
15:00
90 %
18:15
5,54 klux14,40 klux
12:10
--- 
26.
Dezember
1,1 C-0,7 C
19:11
3,1 C
13:36
1028,3 hPa1022,3 hPa
23:52
1030,5 hPa
08:51
4,5 km/h
W
14,9 km/h
00:51  
2,1 l/m
4:05 Stunden
90 %88 %
13:56
92 %
10:16
5,8 klux31,7 klux
13:26
25 Min 
27.
Dezember
-0,7 C-3,4 C
23:48
1,1 C
01:32
1004,5 hPa997,5 hPa
13:17
1022,3 hPa
00:02
17,8 km/h
O-SO
41,8 km/h
09:22  
12,3 l/m
12:41 Stunden
89 %86 %
22:53
91 %
00:02
4,0 klux10,1 klux
11:47
--- 
28.
Dezember
-5,6 C-8,0 C
18:53
-2,4 C
15:58
1022,2 hPa1005,1 hPa
00:03
1034,8 hPa
23:34
7,2 km/h
NO
27,0 km/h
00:38  
---
78 %67 %
15:08
86 %
00:03
17,0 klux32,1 klux
12:28
6:25 Std 
29.
Dezember
-1,9 C-7,2 C
00:04
1,5 C
14:24
1032,6 hPa1029,4 hPa
14:09
1037,0 hPa
23:50
6,7 km/h
NW
23,0 km/h
15:14  
---
1:25 Stunden
84 %80 %
17:49
89 %
10:24
7,1 klux34,8 klux
12:39
40 Min 
30.
Dezember
0,3 C-2,2 C
01:20
2,1 C
12:55
1035,4 hPa1034,5 hPa
12:55
1037,1 hPa
01:20
7,8 km/h
W-NW
19,8 km/h
13:05  
---
87 %80 %
00:25
90 %
08:40
6,5 klux23,6 klux
12:55
15 Min 
31.
Dezember
1,7 C1,1 C
04:21
2,3 C
18:16
1035,5 hPa1034,6 hPa
00:01
1037,6 hPa
23:27
2,3 km/h
W-NW
12,8 km/h
12:56  
---
3:05 Stunden
90 %88 %
00:21
93 %
22:37
3,6 klux9,0 klux
12:21
--- 



Dezember
2014

Temperatur

  

Luftdruck

  

Wind

  

Regen

  

Luftfeuchte

  

Helligkeit

Sonnen-
schein

Min

Max

Min

Max

Max

Max

Min

Max

Max

Max

2,8 C

-8,0 C

18:53 Uhr
28.12.2014

12,2 C

19:58 Uhr
18.12.2014

1019,5 hPa

997,5 hPa

13:17 Uhr
27.12.2014

1037,6 hPa

23:27 Uhr
31.12.2014

12,6 km/h

W

55,5 km/h

12:38 Uhr
12.12.2014

17,5 l/m

20:50 Stunden
13.12.2014

87 %

67 %

15:08 Uhr
28.12.2014

94 %

11:55 Uhr
14.12.2014

4,7 klux

34,80 klux

12:39 Uhr
29.12.2014

6:25 Std

am
28.12.2014

Gesamt

Gesamt

64,4 l/m

24 Tage
100:19 h

16:45 Std


Wetter-Diagramme Dezember 2014     Heinzenberg / Taunus   
TemperaturLuftfeuchte
SolarstrahlungLuftdruck
HelligkeitSonnenschein
RegenmengeRegendauer
Wind-GeschwindigkeitWind-Richtung